Change the Weather History Date:

Saturday, November 16, 2013

  Actual Average Record
Temperature  
Mean Temperature 44 °F -  
Max Temperature 54 °F 42 °F 69 °F (1953)
Min Temperature 35 °F 23 °F -9 °F (1933)
Degree Days  
Heating Degree Days 20    
Moisture  
Dew Point 42 °F    
Average Humidity 90    
Maximum Humidity 97    
Minimum Humidity 79    
Precipitation  
Precipitation 0.18 in - - ()
Sea Level Pressure  
Sea Level Pressure 29.53 in    
Wind  
Wind Speed 11 mph (SSE)    
Max Wind Speed 16 mph    
Max Gust Speed 24 mph    
Visibility 6 miles    
Events Rain    
Averages and records for this station are not official NWS values.
T = Trace of Precipitation, MM = Missing Value Source: NWS Daily Summary

Daily Weather History Graph

Daily Weather History Graph

Search for Another Location

Airport or City:

Trip Planner

Search our weather history database for the weather conditions in past years. The results will help you decide how hot, cold, wet, or windy it might be!

Date:

Astronomy

Nov. 16, 2013 Rise Set
Actual Time 6:59 AM CST 4:31 PM CST
Civil Twilight 6:27 AM CST 5:03 PM CST
Nautical Twilight 5:51 AM CST 5:38 PM CST
Astronomical Twilight 5:17 AM CST 6:13 PM CST
Moon 4:08 PM CST (11/16) 5:53 AM CST (11/16)
Length of Visible Light 10h 35m
Length of Day
9h 32m
Waxing Gibbous, 99% of the Moon is Illuminated
Nov 16
Waxing Gibbous
Nov 17
Full
Nov 25
Last Quarter
Dec 2
New
Dec 9
First Quarter

Hourly Weather History & Observations

Time (CST) Temp. Windchill Dew Point Humidity Pressure Visibility Wind Dir Wind Speed Gust Speed Precip Events Conditions
12:54 AM 35.1 °F 29.3 °F 30.9 °F 85% 29.80 in 10.0 mi SSE 6.9 mph - N/A   Clear
1:54 AM 37.9 °F 30.9 °F 33.1 °F 83% 29.78 in 10.0 mi South 10.4 mph - N/A   Overcast
2:54 AM 39.0 °F 32.8 °F 33.1 °F 79% 29.77 in 10.0 mi South 9.2 mph - N/A   Overcast
3:54 AM 37.9 °F 31.5 °F 32.0 °F 79% 29.75 in 10.0 mi SSE 9.2 mph - N/A   Clear
4:54 AM 37.0 °F 31.6 °F 33.1 °F 86% 29.75 in 10.0 mi SSE 6.9 mph - N/A   Mostly Cloudy
5:54 AM 39.0 °F 31.8 °F 34.0 °F 82% 29.72 in 9.0 mi SSE 11.5 mph - N/A   Overcast
6:54 AM 37.9 °F 30.5 °F 34.0 °F 86% 29.70 in 8.0 mi SSE 11.5 mph - N/A   Overcast
7:28 AM 39.2 °F 31.6 °F 33.8 °F 81% 29.67 in 6.0 mi SSE 12.7 mph 20.7 mph N/A   Haze
7:54 AM 37.9 °F 28.9 °F 35.1 °F 89% 29.71 in 4.0 mi South 16.1 mph - N/A   Overcast
8:32 AM 39.2 °F 31.2 °F 35.6 °F 87% 29.67 in 3.0 mi South 13.8 mph - N/A   Overcast
8:54 AM 39.0 °F 30.3 °F 36.0 °F 89% 29.70 in 2.5 mi South 16.1 mph 21.9 mph N/A   Overcast
9:13 AM 39.2 °F 31.6 °F 37.4 °F 93% 29.66 in 1.8 mi South 12.7 mph - N/A   Overcast
9:46 AM 39.2 °F 32.0 °F 37.4 °F 93% 29.65 in 1.0 mi SSE 11.5 mph - N/A   Overcast
9:54 AM 39.9 °F 32.9 °F 37.9 °F 93% 29.68 in 1.0 mi SSE 11.5 mph - N/A   Overcast
10:18 AM 39.2 °F 31.6 °F 37.4 °F 93% 29.64 in 0.8 mi SSE 12.7 mph - N/A   Overcast
10:30 AM 39.2 °F 32.0 °F 37.4 °F 93% 29.64 in 1.0 mi SSE 11.5 mph - N/A   Overcast
10:54 AM 41.0 °F 33.9 °F 39.0 °F 93% 29.65 in 1.0 mi SSE 12.7 mph 18.4 mph N/A   Overcast
11:13 AM 42.8 °F 36.2 °F 39.2 °F 87% 29.60 in 1.2 mi SSE 12.7 mph - N/A   Overcast
11:54 AM 42.1 °F 36.1 °F 39.9 °F 92% 29.60 in 1.2 mi SE 10.4 mph - N/A   Overcast
12:06 PM 42.8 °F 35.8 °F 41.0 °F 93% 29.56 in 1.0 mi SSE 13.8 mph - 0.00 in Rain Light Rain
12:13 PM 42.8 °F 35.8 °F 41.0 °F 93% 29.55 in 1.2 mi SSE 13.8 mph - 0.00 in Rain Light Rain
12:54 PM 44.1 °F 37.7 °F 42.1 °F 93% 29.57 in 1.5 mi SE 12.7 mph 18.4 mph 0.00 in Rain Light Rain
1:54 PM 44.1 °F 37.7 °F 43.0 °F 96% 29.49 in 1.8 mi SE 12.7 mph - 0.01 in   Overcast
2:11 PM 44.6 °F 38.8 °F 42.8 °F 93% 29.46 in 2.5 mi SE 11.5 mph - N/A   Overcast
2:40 PM 46.4 °F 41.1 °F 44.6 °F 93% 29.45 in 1.8 mi SE 11.5 mph - N/A   Overcast
2:54 PM 46.9 °F - 45.0 °F 93% 29.46 in 2.0 mi SSE 11.5 mph - N/A   Overcast
3:20 PM 48.2 °F - 46.4 °F 93% 29.41 in 1.8 mi SSE 12.7 mph 19.6 mph 0.00 in Rain Light Rain
3:34 PM 48.2 °F - 46.4 °F 93% 29.40 in 3.0 mi SSE 13.8 mph - 0.00 in Rain Light Rain
3:54 PM 50.0 °F - 48.0 °F 93% 29.41 in 4.0 mi SSE 12.7 mph 21.9 mph 0.01 in Rain Light Rain
4:47 PM 51.8 °F - 48.2 °F 88% 29.36 in 5.0 mi South 16.1 mph 24.2 mph 0.07 in Rain Light Rain
4:54 PM 51.1 °F - 48.9 °F 92% 29.38 in 6.0 mi SSE 16.1 mph 23.0 mph 0.07 in Rain Light Rain
5:54 PM 52.0 °F - 50.0 °F 93% 29.37 in 8.0 mi South 12.7 mph - 0.03 in Rain Light Rain
6:54 PM 52.0 °F - 51.1 °F 97% 29.35 in 10.0 mi South 8.1 mph - 0.06 in   Overcast
7:44 PM 53.6 °F - 51.8 °F 94% 29.34 in 10.0 mi South 10.4 mph 17.3 mph 0.00 in   Overcast
7:54 PM 53.1 °F - 51.1 °F 93% 29.36 in 10.0 mi South 8.1 mph - 0.00 in   Overcast
8:42 PM 53.6 °F - 51.8 °F 94% 29.34 in 10.0 mi South 10.4 mph - N/A   Mostly Cloudy
8:50 PM 53.6 °F - 51.8 °F 94% 29.34 in 10.0 mi SSW 11.5 mph - N/A   Mostly Cloudy
8:54 PM 54.0 °F - 51.1 °F 90% 29.36 in 10.0 mi SSW 11.5 mph - N/A   Mostly Cloudy
9:17 PM 53.6 °F - 51.8 °F 94% 29.35 in 10.0 mi SSW 11.5 mph - N/A   Scattered Clouds
9:27 PM 53.6 °F - 51.8 °F 94% 29.35 in 10.0 mi SSW 12.7 mph - N/A   Partly Cloudy
9:54 PM 54.0 °F - 52.0 °F 93% 29.37 in 10.0 mi SSW 11.5 mph - N/A   Partly Cloudy
10:54 PM 53.1 °F - 51.1 °F 93% 29.40 in 10.0 mi WSW 9.2 mph - N/A   Partly Cloudy
11:54 PM 50.0 °F - 45.0 °F 83% 29.41 in 10.0 mi SW 6.9 mph - N/A   Clear